Regional Weather Roundup
Issued by NWS

Home | Current Version | Previous Version | Graphics & Text | Print | Product List | Glossary On
Versions: 1 2 3 4 5 6 7 8 9 10 11 12 13 14 15 16 17 18 19 20 21 22 23 24 25 26 27 28 29 30 31 32 33 34 35 36 37 38 39 40 41 42 43 44 45 46 47 48 49 50
000
ASUS45 KSLC 290910
RWRUT

UTAH REGIONAL WEATHER ROUNDUP
NATIONAL WEATHER SERVICE SALT LAKE CITY UT
300 AM MDT SUN MAR 29 2015

UTZ001>011-023>025-291000-

NORTHERN UTAH

CITY           SKY/WX    TMP DP  RH WIND       PRES   REMARKS
BRIGHAM CITY   CLEAR     43  21  42 NE3       30.29F
HILL AFB       CLEAR     43  23  45 NW8       30.27F
LOGAN          CLEAR     37  24  59 SE3       30.30S
OGDEN          CLEAR     41  24  51 NW7       30.27S
PROVO AIRPORT  CLEAR     48  25  40 NW10      30.28R
SALT LAKE CITY CLEAR     44  26  49 CALM      30.28S
VERNAL         CLEAR     40   8  26 W3        30.19R
WENDOVER       PTCLDY    46  19  34 N6        30.29F
HEBER CITY     CLEAR     30  21  69 CALM      30.27F
WEST JORDAN    CLEAR     46  19  34 NW12      30.28F

$$

UTZ012>022-026-027-291000-

SOUTHERN/CENTRAL UTAH

CITY           SKY/WX    TMP DP  RH WIND       PRES   REMARKS
BLANDING       CLEAR     46  21  37 W6        30.24R
BRYCE CANYON   CLEAR     31  24  75 W6        30.33S WCI  25
CEDAR CITY     CLEAR     43  24  47 E5        30.27R
DELTA          CLEAR     48  18  29 NW9       30.28R
HANKSVILLE     PTCLDY    45  21  39 NW3       30.17S
MILFORD        PTCLDY    45  24  43 N12       30.27R
MOAB/CYNLANDS  CLEAR     60  18  19 W15       30.12R
PRICE          CLEAR     49  19  30 NW5       30.22S
ST GEORGE      SUNNY     57  23  26 S6        30.13R
KANAB          CLEAR     37  25  60 E7        30.24F WCI  32

$$

REGIONAL REPORTS     COLORADO/ARIZONA

CITY           SKY/WX    TMP DP  RH WIND       PRES   REMARKS
CRAIG, CO      CLEAR     34  19  54 VRB5      30.26R WCI  30
GRAND JUNCTION CLOUDY    56  20  24 N8        30.14R
RIFLE          MOCLDY    53  17  24 VRB3      30.18R
MONTROSE       PTCLDY    48  25  40 E8        30.20R
CORTEZ         CLEAR     37  21  52 E7        30.19F WCI  32
PAGE, AZ       CLEAR     61  22  22 W5        30.14S
GRAND CANYON   CLEAR     28  19  69 CALM      30.30F
KINGMAN        CLEAR     50  24  36 SE5       30.12F
FLAGSTAFF      CLEAR     40  20  44 W5        30.31F

$$

REGIONAL REPORTS    NEVADA/IDAHO/WYOMING

CITY           SKY/WX    TMP DP  RH WIND       PRES   REMARKS
LAS VEGAS, NV  CLEAR     69  19  15 SW9       29.99S
ELY            PTCLDY    35  12  38 S7        30.33R WCI  29
ELKO           MOCLDY    32  12  43 NE3       30.33R
POCATELLO, ID  CLEAR     39  20  46 SW13      30.33R WCI  31
BURLEY         CLEAR     37  20  50 W7        30.32S WCI  32
EVANSTON, WY   CLEAR     36  16  44 N5        30.32R WCI  32
ROCK SPRINGS   CLEAR     37  16  42 N13       30.28R WCI  29

$$


USA.gov is the U.S. government's official web portal to all federal, state and local government web resources and services.